Tracking 25995 objects as of 19-Aug-2022
HD Live streaming from Space Station
objects crossing your sky now

STARLINK-3634

Track STARLINK-3634 now!
10-day predictions
STARLINK-3634 is classified as:


NORAD ID: 51798
Int'l Code: 2022-017AG
Perigee: 545.8 km
Apogee: 547.7 km
Inclination: 53.2 °
Period: 95.4 minutes
Semi major axis: 6917 km
RCS: Unknown
Launch date: February 25, 2022
Source: United States (US)
Launch site: AIR FORCE WESTERN TEST RANGE (AFWTR)
aabbcc
Your satellite tracking list
Your tracking list is empty




NASA's NSSDC Master Catalog

Two Line Element Set (TLE):
1 51798U 22017AG  22230.58334491 -.00024305  00000-0 -15128-2 0  9993
2 51798  53.2156  61.0261 0001386  62.6976 323.7163 15.08872745  1300
Source of the keplerian elements: AFSPC